Location: Goettingen
(51.5300°N, 9.9433°E)
Time: 06:07:35
(UTC+01:00)

ISS - Pass Details

Date: 23 February 2020
Orbit: 415 x 423 km, 51.6° (Epoch: 27 February)

Event Time Altitude Azimuth Distance (km) Brightness Sun altitude
Exits shadow 05:54:53 - 200° (SSW) 2,237 -0.3 -13.9°
Reaches altitude 10° 05:57:13 10° 179° (S) 1,497 -1.0 -13.5°
Maximum altitude 05:59:19 16° 141° (SE) 1,203 -0.9 -13.2°
Drops below altitude 10° 06:01:25 10° 102° (ESE) 1,506 0.4 -12.8°
Sets 06:04:07 0° 79° (E) 2,376 1.9 -12.4°
